Content
SEND FEEDBACK

Daily
Averages
Monthly
Summary
United States of America

MEYERS, CALIFORNIA


Home > North America > United States > California
Elevation: 6470 feet     Latitude: 38 49N     Longitude: 120 01W

WEATHER
 
SELECT A DAY
Number of Records: 176,518;   Date Range: 1/1/95 - 9/30/14
 
SHARE

PRINT THIS DATA

[ ← Previous Day ]
WEATHER ALMANAC - FEBRUARY 19, 2013
[ Next Day → ]
[ °C ]   °F
Weather ElementAverageHighLow
Temperature27.2 °F34 °F (2:53 am)19.4 °F (8:22 pm)
Dewpoint18.8 °F25 °F (1:53 am)10.9 °F (12:53 pm)
Humidity71.4 %86 % (8:22 pm)43 % (12:53 pm)
Barometer29.63 in29.78 in (12:23 am)29.52 in (2:53 pm)
Wind Speed10.1 mph24.2 mph (3:24 am)
Wind Gust41.4 mph (3:24 am)
Weather ElementAverage
Visibility4.3 mi
Wind DirectionSSE (152 °)

Weather ElementTotal
Precipitation0.02 in
Heating Degree Days38.3 (Base 65)
Averaged from 70 records on February 19, 2013
WEATHER CONDITIONS BREAKOUT
WIND DIRECTION BREAKOUT
WEATHER BY HOUR - FEBRUARY 19, 2013
[ °C ]   °F
Local TimeTemperatureDewpointHumidityBarometerVisibilityWind DirectionWind SpeedGust SpeedPrecipitationEventsConditions
12:23 AM32.0 °F21.2 °F64 %29.78 in1.5 miSSW (210°)11.5 mph25.3 mph0.00 inSnowLight Snow
12:34 AM30.2 °F24.8 °F80 %29.78 in0.5 miSSW (200°)12.7 mph19.6 mph0.00 inSnowSnow
12:43 AM30.2 °F24.8 °F80 %29.77 in0.5 miSSW (200°)12.7 mph0.00 inSnowSnow
12:47 AM30.2 °F24.8 °F80 %29.77 in0.8 miSSW (200°)11.5 mph18.4 mph0.00 inSnowLight Snow
12:53 AM30.9 °F24.1 °F76 %29.71 in1.5 miSouth (190°)13.8 mph21.9 mph0.00 inSnowLight Snow
1:13 AM30.2 °F24.8 °F80 %29.76 in0.8 miSSW (200°)10.4 mph0.00 inSnowLight Snow
1:24 AM30.2 °F24.8 °F80 %29.75 in1.0 miSSW (200°)10.4 mph0.00 inSnowLight Snow
1:53 AM32.0 °F25.0 °F75 %29.68 in1.5 miSouth (180°)10.4 mph0.00 inSnowLight Snow
2:08 AM32.0 °F24.8 °F75 %29.74 in3.0 miSouth (180°)8.1 mph0.00 inSnowLight Snow
2:15 AM32.0 °F24.8 °F75 %29.72 in5.0 miVariable5.8 mph0.00 inSnowLight Snow
2:34 AM33.8 °F24.8 °F70 %29.70 in2.5 miSSW (200°)15.0 mph25.3 mph0.00 inSnowLight Snow
2:43 AM33.8 °F24.8 °F70 %29.69 in3.0 miSouth (170°)13.8 mph18.4 mph0.00 inSnowLight Snow
2:53 AM34.0 °F24.1 °F67 %29.63 in4.0 miSSW (200°)11.5 mph26.5 mph0.00 inSnowLight Snow
3:09 AM33.8 °F24.8 °F70 %29.70 in1.8 miSSW (200°)18.4 mph33.4 mph0.00 inSnowLight Snow
3:24 AM33.8 °F24.8 °F70 %29.70 in3.0 miSouth (190°)24.2 mph41.4 mph0.00 inSnowLight Snow
3:37 AM33.8 °F23.0 °F65 %29.70 in7.0 miSouth (190°)21.9 mph31.1 mph0.00 inOvercast
3:48 AM32.0 °F24.8 °F75 %29.69 in3.0 miSouth (180°)11.5 mph38.0 mph0.00 inSnowLight Snow
3:53 AM33.1 °F24.1 °F70 %29.63 in3.0 miSW (220°)12.7 mph31.1 mph0.00 inSnowLight Snow
4:33 AM30.2 °F23.0 °F75 %29.69 in5.0 miSSW (200°)16.1 mph27.6 mph0.01 inHaze
4:53 AM30.0 °F23.0 °F75 %29.65 in5.0 miSSW (200°)12.7 mph25.3 mph0.01 inHaze
5:28 AM30.2 °F19.4 °F64 %29.69 in10.0 miSouth (190°)15.0 mph21.9 mphOvercast
5:53 AM28.9 °F19.9 °F69 %29.67 in10.0 miSouth (190°)15.0 mph21.9 mphOvercast
6:53 AM28.0 °F19.0 °F69 %29.65 in10.0 miSouth (180°)10.4 mph20.7 mphOvercast
7:24 AM26.6 °F19.4 °F74 %29.66 in4.0 miSouth (180°)10.4 mph18.4 mph0.00 inSnowLight Snow
7:45 AM26.6 °F17.6 °F69 %29.65 in7.0 miSouth (170°)9.2 mph17.3 mph0.00 inOvercast
7:53 AM27.0 °F17.1 °F66 %29.65 in10.0 miSSW (200°)11.5 mph23.0 mph0.00 inOvercast
8:07 AM28.4 °F15.8 °F59 %29.66 in4.0 miSouth (190°)18.4 mph31.1 mphHaze
8:14 AM28.4 °F15.8 °F59 %29.66 in6.0 miSSW (200°)19.6 mph31.1 mphHaze
8:44 AM26.6 °F15.8 °F64 %29.65 in7.0 miSouth (190°)12.7 mph19.6 mph0.00 inOvercast
8:53 AM27.0 °F16.0 °F63 %29.63 in5.0 miSouth (190°)9.2 mph23.0 mph0.00 inSnowLight Snow
9:12 AM26.6 °F15.8 °F64 %29.64 in3.0 miSouth (180°)12.7 mph26.5 mph0.00 inSnowLight Snow
9:50 AM28.4 °F15.8 °F59 %29.63 in4.0 miSSW (200°)15.0 mph27.6 mph0.00 inSnowLight Snow
10:12 AM28.4 °F15.8 °F59 %29.63 in4.0 miSSW (200°)17.3 mph31.1 mph0.00 inSnowLight Snow
10:21 AM28.4 °F15.8 °F59 %29.63 in2.0 miSSW (200°)19.6 mph27.6 mph0.00 inSnowLight Snow
10:32 AM28.4 °F15.8 °F59 %29.63 in3.0 miSSW (210°)16.1 mph25.3 mph0.00 inSnowLight Snow
10:45 AM28.4 °F15.8 °F59 %29.64 in2.5 miSSW (200°)11.5 mph21.9 mph0.00 inSnowLight Snow
10:49 AM28.4 °F15.8 °F59 %29.63 in3.0 miSSW (210°)13.8 mph24.2 mph0.00 inSnowLight Snow
10:53 AM28.0 °F16.0 °F61 %29.62 in2.5 miSouth (190°)12.7 mph24.2 mph0.00 inSnowLight Snow
10:56 AM28.4 °F17.6 °F64 %29.63 in3.0 miSSW (210°)10.4 mph21.9 mph0.00 inSnowLight Snow
11:07 AM28.4 °F15.8 °F59 %29.63 in2.5 miSSW (210°)16.1 mph29.9 mph0.00 inSnowLight Snow
11:17 AM28.4 °F15.8 °F59 %29.62 in5.0 miSSW (200°)19.6 mph27.6 mph0.00 inSnowLight Snow
11:53 AM30.0 °F12.9 °F49 %29.57 in10.0 miSSW (200°)18.4 mph34.5 mph0.00 inOvercast
12:53 PM30.9 °F10.9 °F43 %29.54 in10.0 miSSW (200°)16.1 mph24.2 mph0.00 inOvercast
1:53 PM28.0 °F15.1 °F58 %29.53 in4.0 miSSW (200°)17.3 mph26.5 mphHaze
2:10 PM28.4 °F15.8 °F59 %29.54 in6.0 miVariable4.6 mph0.00 inHaze
2:16 PM26.6 °F15.8 °F64 %29.54 in2.5 miSSW (210°)10.4 mph17.3 mph0.00 inSnowLight Snow
2:53 PM26.1 °F17.1 °F69 %29.52 in2.5 miSSW (210°)13.8 mph25.3 mph0.00 inSnowLight Snow
3:07 PM26.6 °F17.6 °F69 %29.53 in1.2 miSSW (200°)12.7 mph19.6 mph0.00 inSnowLight Snow
4:37 PM24.8 °F19.4 °F80 %29.53 in0.5 miSouth (190°)9.2 mph0.00 inSnowSnow
4:53 PM24.1 °F19.0 °F81 %29.55 in0.8 miSouth (190°)6.9 mph0.00 inSnowLight Snow
5:03 PM24.8 °F19.4 °F80 %29.54 in0.8 miSW (220°)6.9 mph0.00 inSnowLight Snow
5:11 PM24.8 °F19.4 °F80 %29.53 in0.5 miSSW (200°)9.2 mph0.00 inSnowSnow
5:47 PM24.8 °F19.4 °F80 %29.53 in1.0 miSSW (200°)5.8 mph0.00 inSnowLight Snow
5:48 PM24.1 °F19.0 °F81 %29.55 in1.0 miSSW (200°)5.8 mph0.00 inSnowLight Snow
6:02 PM24.8 °F19.4 °F80 %29.53 in2.5 miSW (220°)3.5 mph0.00 inSnowLight Snow
6:07 PM24.8 °F17.6 °F74 %29.53 in5.0 miCalm0.00 inSnowLight Snow
6:53 PM21.0 °F16.0 °F81 %29.58 in10.0 miCalm0.00 inScattered Clouds
7:53 PM19.9 °F16.0 °F85 %29.60 in10.0 miCalmMostly Cloudy
8:09 PM21.2 °F15.8 °F80 %29.55 in1.2 miCalm0.00 inSnowLight Snow
8:22 PM19.4 °F15.8 °F86 %29.54 in2.5 miSSW (200°)3.5 mph0.00 inSnowLight Snow
8:25 PM19.4 °F15.8 °F86 %29.54 in3.0 miCalm0.00 inSnowLight Snow
8:34 PM19.4 °F15.8 °F86 %29.55 in5.0 miCalm0.00 inMostly Cloudy
8:53 PM19.9 °F16.0 °F85 %29.61 in10.0 miCalm0.00 inOvercast
9:21 PM21.2 °F15.8 °F80 %29.57 in10.0 miCalmOvercast
9:42 PM21.2 °F15.8 °F80 %29.57 in2.5 miCalm0.00 inSnowLight Snow
9:53 PM21.0 °F16.0 °F81 %29.62 in4.0 miCalm0.00 inSnowLight Snow
10:02 PM19.4 °F15.8 °F86 %29.58 in8.0 miCalm0.00 inOvercast
10:53 PM19.9 °F16.0 °F85 %29.64 in10.0 miCalm0.00 inOvercast
11:21 PM21.2 °F15.8 °F80 %29.60 in9.0 miCalmOvercast
11:53 PM21.0 °F16.0 °F81 %29.65 in4.0 miCalm0.00 inSnowLight Snow
Hourly data recorded from KTVL, located miles away from Meyers, California







STORIES FROM OUR PARTNERS